This is the latest recevied weather packets stored in our database for station/object DK8HC-WX. If no packets are shown the sender has not sent any weather packets the latest 10 day(s).
| Time | Temp. | Humidity | Pressure | Rain* | Wind** | Luminosity | Snow |
|---|---|---|---|---|---|---|---|
| 1777405881 | 11.11° C | 51% | 1027.6 hPa | - | - | - | - |
| 1777404681 | 11.11° C | 48% | 1027.4 hPa | - | - | - | - |
| 1777404081 | 11.67° C | 47% | 1027.4 hPa | - | - | - | - |
| 1777403481 | 11.67° C | 46% | 1027.3 hPa | - | - | - | - |
| 1777402881 | 12.22° C | 45% | 1027.2 hPa | - | - | - | - |
| 1777401681 | 12.78° C | 43% | 1027 hPa | - | - | - | - |
| 1777401081 | 12.78° C | 42% | 1027 hPa | - | - | - | - |
| 1777400481 | 13.33° C | 42% | 1027 hPa | - | - | - | - |
| 1777399281 | 13.89° C | 40% | 1026.8 hPa | - | - | - | - |
| 1777398681 | 13.89° C | 39% | 1026.7 hPa | - | - | - | - |
| 1777397481 | 14.44° C | 38% | 1026.8 hPa | - | - | - | - |
| 1777396881 | 14.44° C | 37% | 1026.7 hPa | - | - | - | - |
| 1777396281 | 14.44° C | 37% | 1026.6 hPa | - | - | - | - |
| 1777395681 | 14.44° C | 36% | 1026.8 hPa | - | - | - | - |
| 1777395083 | 15° C | 36% | 1026.7 hPa | - | - | - | - |
| 1777393281 | 17.22° C | 31% | 1026.9 hPa | - | - | - | - |
| 1777392681 | 16.67° C | 30% | 1026.7 hPa | - | - | - | - |
| 1777392081 | 17.78° C | 30% | 1027 hPa | - | - | - | - |
| 1777391481 | 17.78° C | 29% | 1026.9 hPa | - | - | - | - |
| 1777390881 | 18.89° C | 28% | 1027 hPa | - | - | - | - |
| 1777390280 | 18.33° C | 29% | 1026.9 hPa | - | - | - | - |
| 1777386680 | 18.33° C | 28% | 1027.2 hPa | - | - | - | - |
| 1777385480 | 19.44° C | 28% | 1027.4 hPa | - | - | - | - |
| 1777383080 | 20° C | 30% | 1027.6 hPa | - | - | - | - |
| 1777382480 | 18.89° C | 30% | 1027.6 hPa | - | - | - | - |
* Rain since midnight (hover to see other rain measurements)
** Current wind speed in m/s (hover to see current wind gust speed)